Renton, WA

7:05 AM PST on January 20, 2018 (GMT -0800)
Renton Municipal

Weather History for KRNT - May, 2013

Change the Weather History Date:

Tuesday, May 21, 2013

  Actual Average Record
Temperature  
Mean Temperature 52 °F -  
Max Temperature 60 °F 65 °F 79 °F (2015)
Min Temperature 46 °F 48 °F 45 °F (2005)
Degree Days  
Heating Degree Days 12    
Growing Degree Days 2 (Base 50)    
Moisture  
Dew Point 45 °F    
Average Humidity 79    
Maximum Humidity 100    
Minimum Humidity 53    
Precipitation  
Precipitation 0.39 in - - ()
Sea Level Pressure  
Sea Level Pressure 29.86 in    
Wind  
Wind Speed 7 mph (South)    
Max Wind Speed 14 mph    
Max Gust Speed 22 mph    
Visibility 8 miles    
Events Rain    
Averages and records for this station are not official NWS values.
T = Trace of Precipitation, MM = Missing Value Source: NWS Daily Summary

Daily Weather History Graph

Daily Weather History Graph

Search for Another Location

Airport or City:

Trip Planner

Search our weather history database for the weather conditions in past years. The results will help you decide how hot, cold, wet, or windy it might be!

Date:

Astronomy

May. 21, 2013 Rise Set
Actual Time 5:24 AM PDT 8:47 PM PDT
Civil Twilight 4:47 AM PDT 9:24 PM PDT
Nautical Twilight 3:57 AM PDT 10:14 PM PDT
Astronomical Twilight 2:53 AM PDT 11:19 PM PDT
Moon 4:53 PM PDT (5/21) 3:12 AM PDT (5/21)
Length of Visible Light 16h 37m
Length of Day
15h 22m
Waxing Gibbous, 85% of the Moon is Illuminated
May 21
Waxing Gibbous
May 24
Full
May 31
Last Quarter
Jun 8
New
Jun 16
First Quarter

Hourly Weather History & Observations

Time (PDT) Temp. Windchill Dew Point Humidity Pressure Visibility Wind Dir Wind Speed Gust Speed Precip Events Conditions
12:53 AM 54.0 °F - 46.9 °F 77% 29.91 in 10.0 mi NW 9.2 mph - N/A   Overcast
1:53 AM 53.1 °F - 48.0 °F 83% 29.91 in 10.0 mi North 3.5 mph - 0.00 in   Overcast
2:32 AM 51.8 °F - 48.2 °F 88% 29.89 in 6.0 mi NW 6.9 mph - 0.01 in Rain Light Rain
2:53 AM 51.1 °F - 46.9 °F 86% 29.90 in 3.0 mi NW 8.1 mph - 0.05 in Rain Rain
3:13 AM 50.0 °F - 48.2 °F 94% 29.88 in 6.0 mi WNW 4.6 mph - 0.04 in Rain Light Rain
3:22 AM 50.0 °F - 48.2 °F 94% 29.88 in 5.0 mi West 5.8 mph - 0.05 in Rain Light Rain
3:43 AM 48.2 °F - 46.4 °F 93% 29.88 in 5.0 mi SW 6.9 mph - 0.08 in Rain Light Rain
3:53 AM 48.9 °F - 46.0 °F 90% 29.90 in 5.0 mi SSW 3.5 mph - 0.09 in Rain Light Rain
4:53 AM 48.0 °F - 45.0 °F 89% 29.89 in 9.0 mi SSE 4.6 mph - 0.09 in Rain Light Rain
5:23 AM 48.2 °F - 44.6 °F 87% 29.87 in 4.0 mi South 9.2 mph - 0.03 in Rain Rain
5:51 AM 48.2 °F - 46.4 °F 93% 29.87 in 5.0 mi Variable 4.6 mph - 0.08 in Rain Rain
5:53 AM 48.0 °F - 46.0 °F 93% 29.89 in 4.0 mi SE 4.6 mph - 0.09 in Rain Rain
6:00 AM 48.2 °F - 46.4 °F 93% 29.87 in 4.0 mi SE 4.6 mph - 0.02 in Rain Rain
6:21 AM 46.4 °F 43.5 °F 46.4 °F 100% 29.86 in 5.0 mi SSE 5.8 mph - 0.06 in Rain Light Rain
6:53 AM 48.0 °F - 45.0 °F 89% 29.88 in 10.0 mi SSE 8.1 mph - 0.06 in   Overcast
7:14 AM 46.4 °F 43.5 °F 44.6 °F 93% 29.86 in 5.0 mi SSE 5.8 mph - 0.01 in Rain Light Rain
7:53 AM 48.0 °F - 45.0 °F 89% 29.86 in 10.0 mi SE 6.9 mph - 0.01 in   Overcast
8:53 AM 48.0 °F - 45.0 °F 89% 29.85 in 10.0 mi SE 3.5 mph - N/A   Overcast
9:44 AM 50.0 °F - 44.6 °F 82% 29.82 in 10.0 mi SSE 6.9 mph - N/A   Overcast
9:53 AM 50.0 °F - 46.0 °F 86% 29.84 in 10.0 mi South 6.9 mph - N/A   Overcast
10:53 AM 52.0 °F - 46.0 °F 80% 29.83 in 10.0 mi SSE 4.6 mph - N/A   Overcast
11:53 AM 53.1 °F - 44.1 °F 71% 29.82 in 10.0 mi Variable 5.8 mph - N/A   Overcast
12:53 PM 55.0 °F - 44.1 °F 67% 29.81 in 10.0 mi SW 4.6 mph - N/A   Overcast
1:53 PM 57.9 °F - 43.0 °F 58% 29.81 in 10.0 mi Variable 5.8 mph - N/A   Overcast
2:53 PM 59.0 °F - 42.1 °F 53% 29.80 in 10.0 mi Variable 5.8 mph 16.1 mph N/A   Mostly Cloudy
3:53 PM 59.0 °F - 43.0 °F 55% 29.81 in 10.0 mi SSW 6.9 mph - N/A   Overcast
4:53 PM 59.0 °F - 43.0 °F 55% 29.80 in 10.0 mi SSW 6.9 mph 16.1 mph N/A   Scattered Clouds
5:53 PM 57.9 °F - 42.1 °F 56% 29.81 in 10.0 mi SSW 11.5 mph 18.4 mph N/A   Mostly Cloudy
6:53 PM 57.0 °F - 41.0 °F 55% 29.83 in 10.0 mi South 8.1 mph 18.4 mph N/A   Scattered Clouds
7:53 PM 53.1 °F - 42.1 °F 66% 29.86 in 10.0 mi South 13.8 mph 21.9 mph N/A   Mostly Cloudy
8:53 PM 52.0 °F - 42.1 °F 69% 29.88 in 10.0 mi SSW 12.7 mph 18.4 mph N/A   Overcast
9:12 PM 51.8 °F - 41.0 °F 67% 29.86 in 10.0 mi South 12.7 mph - N/A   Overcast
9:53 PM 51.1 °F - 41.0 °F 68% 29.88 in 10.0 mi South 11.5 mph 19.6 mph N/A   Overcast
10:53 PM 51.1 °F - 39.9 °F 66% 29.88 in 10.0 mi South 11.5 mph 18.4 mph N/A   Overcast
11:53 PM 48.9 °F - 44.1 °F 83% 29.89 in 6.0 mi South 6.9 mph 16.1 mph 0.00 in Rain Light Rain